QPF
0.05 0.08 0.06 0.04 0.08 0.12 0.19 0.20 0.11 0.05 0.02 0.01 0.00 0.00 0.00 0.00 0.00 0.00 0.00 0.00 0.00 0.00 0.00 0.00 0.00 0.00 0.00 0.00 0.00 0.00 0.00 0.00 0.00 0.00 0.00 0.00 0.00 0.01
0.06 0.07 0.07 0.05 0.03 0.03 0.09 0.19 0.15 0.07 0.03 0.02 0.01 0.01 0.01 0.00 0.00 0.00 0.00 0.00 0.00 0.00 0.00 0.00 0.00 0.00 0.00 0.00 0.00 0.00 0.00 0.00 0.00 0.00 0.00 0.00 0.00 0.01
0.03 0.04 0.08 0.09 0.08 0.06 0.06 0.14 0.19 0.14 0.08 0.04 0.03 0.07 0.06 0.01 0.00 0.00 0.00 0.00 0.00 0.00 0.00 0.00 0.00 0.00 0.00 0.00 0.00 0.00 0.00 0.00 0.00 0.00 0.00 0.00 0.00 0.01
0.01 0.02 0.05 0.09 0.12 0.12 0.12 0.15 0.18 0.19 0.15 0.10 0.07 0.08 0.08 0.06 0.03 0.00 0.00 0.00 0.00 0.00 0.00 0.00 0.00 0.00 0.00 0.00 0.00 0.00 0.00 0.00 0.00 0.00 0.00 0.00 0.00 0.00
0.01 0.02 0.04 0.06 0.08 0.12 0.16 0.21 0.22 0.20 0.19 0.16 0.14 0.10 0.07 0.07 0.03 0.01 0.00 0.00 0.00 0.00 0.00 0.00 0.00 0.00 0.00 0.00 0.00 0.00 0.00 0.00 0.00 0.00 0.00 0.00 0.00 0.00
0.01 0.01 0.02 0.04 0.08 0.15 0.23 0.25 0.23 0.20 0.19 0.22 0.25 0.21 0.14 0.08 0.04 0.01 0.00 0.00 0.00 0.00 0.00 0.00 0.00 0.00 0.00 0.00 0.00 0.00 0.00 0.00 0.00 0.00 0.00 0.00 0.00 0.00
0.00 0.01 0.01 0.02 0.05 0.12 0.22 0.31 0.28 0.23 0.21 0.24 0.25 0.20 0.14 0.09 0.04 0.01 0.00 0.00 0.00 0.00 0.00 0.00 0.00 0.00 0.00 0.00 0.00 0.00 0.00 0.00 0.00 0.00 0.00 0.00 0.00 0.00
0.00 0.01 0.01 0.01 0.02 0.06 0.10 0.19 0.25 0.25 0.24 0.23 0.24 0.23 0.17 0.09 0.04 0.01 0.00 0.00 0.00 0.00 0.00 0.00 0.00 0.00 0.00 0.00 0.00 0.00 0.00 0.00 0.00 0.00 0.00 0.00 0.00 0.00
0.00 0.01 0.01 0.01 0.02 0.03 0.05 0.10 0.14 0.17 0.19 0.19 0.18 0.16 0.16 0.11 0.07 0.02 0.01 0.00 0.00 0.00 0.00 0.00 0.00 0.00 0.00 0.00 0.00 0.00 0.00 0.00 0.00 0.00 0.00 0.00 0.00 0.00
0.01 0.01 0.00 0.00 0.01 0.03 0.04 0.06 0.09 0.12 0.13 0.12 0.11 0.11 0.12 0.11 0.10 0.11 0.09 0.04 0.01 0.00 0.00 0.00 0.00 0.00 0.00 0.00 0.00 0.00 0.00 0.00 0.00 0.00 0.00 0.00 0.00 0.00
0.03 0.02 0.01 0.00 0.01 0.02 0.05 0.05 0.04 0.08 0.13 0.17 0.22 0.21 0.17 0.17 0.15 0.13 0.07 0.03 0.01 0.00 0.00 0.00 0.00 0.00 0.00 0.00 0.00 0.00 0.00 0.00 0.00 0.00 0.00 0.00 0.00 0.00
0.07 0.03 0.01 0.00 0.01 0.03 0.06 0.07 0.03 0.04 0.13 0.19 0.21 0.19 0.13 0.09 0.07 0.06 0.05 0.04 0.02 0.00 0.00 0.00 0.00 0.00 0.00 0.00 0.00 0.00 0.00 0.00 0.00 0.00 0.00 0.00 0.00 0.00
0.06 0.03 0.01 0.02 0.02 0.04 0.06 0.05 0.03 0.04 0.08 0.08 0.06 0.04 0.02 0.01 0.01 0.01 0.02 0.03 0.03 0.02 0.02 0.01 0.00 0.00 0.00 0.00 0.00 0.00 0.00 0.00 0.00 0.00 0.00 0.00 0.00 0.00
0.02 0.03 0.04 0.05 0.05 0.06 0.05 0.04 0.03 0.02 0.02 0.01 0.01 0.00 0.00 0.00 0.00 0.00 0.02 0.04 0.06 0.08 0.08 0.06 0.03 0.02 0.01 0.00 0.00 0.00 0.00 0.00 0.00 0.00 0.00 0.00 0.00 0.00
0.02 0.06 0.10 0.12 0.09 0.06 0.04 0.03 0.02 0.01 0.01 0.00 0.00 0.00 0.00 0.01 0.02 0.03 0.03 0.04 0.06 0.10 0.13 0.15 0.15 0.11 0.06 0.03 0.01 0.01 0.01 0.01 0.01 0.00 0.00 0.00 0.00 0.00
0.02 0.07 0.12 0.15 0.09 0.06 0.04 0.02 0.01 0.01 0.01 0.00 0.00 0.00 0.00 0.01 0.02 0.03 0.02 0.01 0.01 0.03 0.08 0.13 0.24 0.33 0.32 0.26 0.20 0.14 0.10 0.06 0.04 0.03 0.01 0.01 0.00 0.00
0.04 0.11 0.18 0.16 0.10 0.06 0.03 0.02 0.01 0.01 0.01 0.01 0.01 0.01 0.00 0.00 0.00 0.00 0.00 0.00 0.00 0.00 0.02 0.03 0.06 0.12 0.19 0.24 0.27 0.26 0.25 0.21 0.15 0.12 0.08 0.04 0.02 0.01
0.09 0.17 0.20 0.20 0.16 0.10 0.04 0.02 0.01 0.01 0.01 0.00 0.00 0.00 0.00 0.01 0.01 0.01 0.01 0.01 0.01 0.01 0.01 0.01 0.02 0.03 0.05 0.07 0.09 0.12 0.14 0.14 0.14 0.15 0.15 0.11 0.07 0.05
0.37 0.38 0.30 0.27 0.26 0.18 0.09 0.03 0.01 0.01 0.00 0.01 0.01 0.01 0.01 0.01 0.01 0.01 0.01 0.01 0.01 0.01 0.00 0.00 0.02 0.03 0.05 0.04 0.03 0.06 0.08 0.09 0.11 0.12 0.13 0.12 0.09 0.08
0.44 0.40 0.37 0.33 0.26 0.17 0.09 0.04 0.02 0.01 0.01 0.01 0.01 0.00 0.01 0.01 0.01 0.00 0.00 0.00 0.00 0.00 0.00 0.01 0.01 0.03 0.04 0.05 0.04 0.04 0.07 0.10 0.12 0.13 0.12 0.12 0.10 0.10
0.17 0.16 0.14 0.13 0.08 0.04 0.02 0.01 0.00 0.00 0.00 0.00 0.00 0.00 0.00 0.00 0.00 0.01 0.01 0.01 0.01 0.01 0.01 0.01 0.01 0.02 0.03 0.04 0.04 0.02 0.02 0.06 0.09 0.09 0.10 0.13 0.14 0.14
0.05 0.05 0.04 0.02 0.01 0.01 0.01 0.00 0.00 0.00 0.00 0.00 0.00 0.00 0.00 0.00 0.00 0.01 0.01 0.01 0.01 0.01 0.01 0.00 0.00 0.01 0.01 0.02 0.02 0.02 0.02 0.02 0.05 0.10 0.10 0.10 0.11 0.12
0.02 0.03 0.03 0.02 0.01 0.01 0.00 0.00 0.01 0.00 0.00 0.00 0.00 0.00 0.00 0.01 0.01 0.01 0.01 0.01 0.02 0.02 0.01 0.01 0.00 0.00 0.01 0.02 0.03 0.03 0.02 0.02 0.03 0.06 0.13 0.21 0.18 0.12
MSLP
1013.71 1014.03 1014.41 1014.83 1015.27 1015.66 1015.99 1016.23 1016.37 1016.43 1016.42 1016.39 1016.37 1016.40 1016.49 1016.66 1016.88 1017.14 1017.41 1017.65 1017.86 1018.00 1018.08 1018.09 1018.07 1018.01 1017.94 1017.86 1017.79 1017.73 1017.66 1017.57 1017.46 1017.30 1017.08 1016.81 1016.48 1016.10
1013.44 1013.69 1014.00 1014.34 1014.70 1015.03 1015.33 1015.56 1015.73 1015.83 1015.89 1015.93 1015.97 1016.05 1016.19 1016.37 1016.61 1016.89 1017.17 1017.45 1017.69 1017.88 1018.01 1018.08 1018.09 1018.07 1018.01 1017.94 1017.87 1017.80 1017.72 1017.65 1017.56 1017.44 1017.28 1017.07 1016.81 1016.49
1013.26 1013.44 1013.67 1013.92 1014.20 1014.48 1014.74 1014.97 1015.16 1015.32 1015.44 1015.56 1015.68 1015.81 1015.98 1016.18 1016.42 1016.69 1016.97 1017.24 1017.49 1017.71 1017.87 1017.98 1018.03 1018.04 1018.00 1017.94 1017.86 1017.78 1017.71 1017.63 1017.56 1017.48 1017.38 1017.24 1017.06 1016.84
1013.14 1013.27 1013.42 1013.60 1013.80 1014.03 1014.26 1014.49 1014.71 1014.92 1015.12 1015.31 1015.49 1015.67 1015.87 1016.08 1016.30 1016.54 1016.79 1017.04 1017.27 1017.49 1017.67 1017.81 1017.89 1017.92 1017.91 1017.85 1017.78 1017.69 1017.60 1017.52 1017.46 1017.41 1017.35 1017.29 1017.20 1017.06
1013.03 1013.12 1013.23 1013.35 1013.50 1013.68 1013.89 1014.12 1014.37 1014.63 1014.88 1015.13 1015.37 1015.59 1015.80 1016.00 1016.19 1016.39 1016.59 1016.80 1017.01 1017.21 1017.40 1017.55 1017.65 1017.71 1017.72 1017.68 1017.61 1017.52 1017.42 1017.34 1017.28 1017.24 1017.22 1017.21 1017.19 1017.15
1012.90 1012.98 1013.06 1013.15 1013.26 1013.41 1013.60 1013.83 1014.10 1014.39 1014.69 1014.98 1015.25 1015.49 1015.70 1015.88 1016.04 1016.19 1016.34 1016.51 1016.68 1016.86 1017.04 1017.20 1017.33 1017.41 1017.44 1017.43 1017.36 1017.28 1017.19 1017.10 1017.04 1017.02 1017.02 1017.05 1017.08 1017.10
1012.72 1012.80 1012.88 1012.95 1013.04 1013.17 1013.34 1013.57 1013.84 1014.14 1014.46 1014.77 1015.05 1015.30 1015.50 1015.66 1015.79 1015.90 1016.01 1016.13 1016.27 1016.43 1016.60 1016.77 1016.92 1017.02 1017.09 1017.10 1017.06 1017.00 1016.92 1016.85 1016.80 1016.78 1016.80 1016.85 1016.91 1016.97
1012.47 1012.57 1012.65 1012.72 1012.80 1012.91 1013.07 1013.28 1013.54 1013.83 1014.14 1014.45 1014.74 1014.97 1015.16 1015.31 1015.41 1015.49 1015.57 1015.67 1015.79 1015.93 1016.10 1016.27 1016.44 1016.57 1016.67 1016.71 1016.72 1016.69 1016.64 1016.59 1016.57 1016.57 1016.60 1016.67 1016.75 1016.83
1012.17 1012.28 1012.37 1012.44 1012.52 1012.62 1012.75 1012.94 1013.17 1013.44 1013.73 1014.02 1014.29 1014.51 1014.69 1014.82 1014.92 1014.99 1015.06 1015.15 1015.26 1015.40 1015.56 1015.74 1015.92 1016.07 1016.20 1016.28 1016.33 1016.35 1016.35 1016.35 1016.36 1016.40 1016.46 1016.55 1016.64 1016.73
1011.84 1011.96 1012.05 1012.13 1012.20 1012.29 1012.41 1012.57 1012.77 1013.00 1013.25 1013.51 1013.75 1013.97 1014.14 1014.27 1014.37 1014.46 1014.53 1014.62 1014.73 1014.87 1015.03 1015.21 1015.38 1015.55 1015.70 1015.82 1015.91 1015.98 1016.04 1016.11 1016.18 1016.27 1016.37 1016.49 1016.60 1016.70
1011.52 1011.63 1011.73 1011.80 1011.88 1011.96 1012.06 1012.19 1012.36 1012.55 1012.77 1013.00 1013.22 1013.42 1013.59 1013.73 1013.85 1013.95 1014.04 1014.14 1014.26 1014.39 1014.54 1014.70 1014.87 1015.03 1015.18 1015.32 1015.45 1015.57 1015.70 1015.83 1015.97 1016.13 1016.29 1016.45 1016.59 1016.70
1011.23 1011.33 1011.42 1011.50 1011.57 1011.65 1011.75 1011.86 1012.01 1012.18 1012.37 1012.57 1012.77 1012.96 1013.14 1013.29 1013.42 1013.54 1013.65 1013.76 1013.87 1014.00 1014.12 1014.26 1014.39 1014.53 1014.67 1014.81 1014.96 1015.12 1015.30 1015.49 1015.71 1015.93 1016.15 1016.36 1016.54 1016.68
1011.00 1011.08 1011.16 1011.24 1011.32 1011.41 1011.51 1011.62 1011.76 1011.91 1012.09 1012.27 1012.46 1012.65 1012.82 1012.99 1013.14 1013.27 1013.39 1013.50 1013.60 1013.70 1013.79 1013.88 1013.97 1014.06 1014.17 1014.29 1014.44 1014.61 1014.83 1015.07 1015.34 1015.62 1015.90 1016.16 1016.38 1016.55
1010.83 1010.88 1010.95 1011.03 1011.13 1011.24 1011.36 1011.49 1011.64 1011.79 1011.96 1012.14 1012.32 1012.50 1012.68 1012.84 1013.00 1013.14 1013.25 1013.35 1013.43 1013.49 1013.54 1013.57 1013.60 1013.64 1013.69 1013.78 1013.90 1014.08 1014.30 1014.56 1014.86 1015.18 1015.50 1015.79 1016.04 1016.24
1010.71 1010.73 1010.80 1010.89 1011.02 1011.15 1011.31 1011.46 1011.63 1011.80 1011.97 1012.15 1012.33 1012.50 1012.67 1012.83 1012.98 1013.10 1013.21 1013.28 1013.33 1013.35 1013.34 1013.32 1013.29 1013.27 1013.27 1013.30 1013.39 1013.53 1013.74 1014.00 1014.30 1014.62 1014.94 1015.25 1015.51 1015.71
1010.64 1010.65 1010.71 1010.82 1010.97 1011.14 1011.32 1011.52 1011.71 1011.90 1012.09 1012.27 1012.44 1012.60 1012.76 1012.90 1013.02 1013.12 1013.20 1013.25 1013.26 1013.24 1013.19 1013.12 1013.03 1012.96 1012.90 1012.88 1012.92 1013.02 1013.19 1013.41 1013.68 1013.97 1014.27 1014.55 1014.79 1014.98
1010.64 1010.63 1010.70 1010.82 1010.99 1011.19 1011.41 1011.64 1011.86 1012.07 1012.26 1012.44 1012.60 1012.74 1012.87 1012.98 1013.07 1013.14 1013.18 1013.19 1013.18 1013.12 1013.04 1012.94 1012.82 1012.71 1012.61 1012.55 1012.54 1012.59 1012.69 1012.86 1013.06 1013.30 1013.54 1013.76 1013.96 1014.11
1010.74 1010.72 1010.78 1010.91 1011.09 1011.31 1011.55 1011.80 1012.04 1012.26 1012.45 1012.62 1012.76 1012.87 1012.96 1013.03 1013.08 1013.11 1013.11 1013.10 1013.06 1012.99 1012.89 1012.77 1012.64 1012.51 1012.39 1012.30 1012.25 1012.25 1012.29 1012.38 1012.51 1012.67 1012.83 1012.98 1013.10 1013.20
1010.96 1010.93 1010.99 1011.12 1011.30 1011.52 1011.76 1012.01 1012.25 1012.46 1012.64 1012.78 1012.89 1012.96 1013.00 1013.02 1013.03 1013.02 1012.99 1012.95 1012.89 1012.82 1012.72 1012.61 1012.49 1012.36 1012.24 1012.13 1012.05 1012.00 1011.99 1012.00 1012.05 1012.12 1012.19 1012.26 1012.31 1012.35
1011.32 1011.29 1011.34 1011.45 1011.62 1011.82 1012.05 1012.28 1012.49 1012.67 1012.82 1012.92 1012.99 1013.01 1013.00 1012.97 1012.93 1012.88 1012.82 1012.76 1012.69 1012.62 1012.54 1012.44 1012.34 1012.23 1012.12 1012.01 1011.91 1011.82 1011.76 1011.71 1011.69 1011.67 1011.67 1011.66 1011.65 1011.63
1011.83 1011.81 1011.84 1011.93 1012.06 1012.23 1012.42 1012.60 1012.77 1012.91 1013.00 1013.06 1013.07 1013.04 1012.98 1012.90 1012.81 1012.71 1012.63 1012.55 1012.47 1012.41 1012.34 1012.26 1012.18 1012.09 1012.00 1011.89 1011.78 1011.68 1011.57 1011.48 1011.40 1011.32 1011.25 1011.19 1011.14 1011.09
1012.47 1012.44 1012.46 1012.51 1012.60 1012.72 1012.85 1012.98 1013.08 1013.16 1013.20 1013.19 1013.14 1013.06 1012.94 1012.82 1012.68 1012.56 1012.44 1012.34 1012.26 1012.19 1012.13 1012.07 1012.01 1011.93 1011.85 1011.75 1011.64 1011.52 1011.40 1011.28 1011.16 1011.05 1010.94 1010.86 1010.79 1010.73
1013.19 1013.16 1013.15 1013.17 1013.21 1013.26 1013.32 1013.38 1013.41 1013.42 1013.39 1013.32 1013.22 1013.08 1012.92 1012.75 1012.58 1012.42 1012.28 1012.16 1012.07 1011.99 1011.93 1011.88 1011.82 1011.75 1011.67 1011.58 1011.47 1011.34 1011.21 1011.07 1010.94 1010.82 1010.72 1010.63 1010.57 1010.53
Thickness
5679 5678 5679 5680 5681 5682 5681 5679 5674 5672 5675 5682 5686 5690 5690 5689 5689 5690 5691 5691 5690 5690 5691 5693 5694 5695 5697 5699 5701 5705 5708 5711 5713 5714 5714 5716 5719 5722
5676 5676 5677 5678 5679 5679 5679 5678 5677 5676 5677 5683 5686 5690 5690 5689 5687 5688 5688 5688 5687 5687 5687 5688 5689 5691 5693 5695 5698 5701 5704 5706 5708 5708 5709 5712 5714 5717
5674 5674 5675 5675 5675 5675 5675 5675 5675 5675 5676 5680 5683 5686 5687 5687 5686 5685 5685 5684 5685 5684 5684 5685 5686 5687 5690 5692 5694 5696 5699 5702 5703 5704 5706 5708 5710 5712
5673 5673 5673 5674 5674 5674 5673 5672 5672 5673 5674 5675 5677 5680 5682 5684 5684 5682 5682 5681 5682 5682 5682 5682 5683 5684 5686 5688 5689 5691 5694 5697 5699 5700 5702 5703 5705 5706
5673 5673 5673 5672 5672 5671 5670 5669 5668 5669 5671 5672 5673 5675 5676 5678 5677 5677 5677 5678 5678 5680 5680 5680 5680 5681 5683 5684 5685 5687 5690 5692 5693 5694 5696 5697 5698 5698
5670 5671 5671 5670 5669 5668 5666 5665 5664 5663 5664 5666 5668 5669 5670 5672 5671 5671 5671 5672 5674 5676 5677 5677 5677 5678 5680 5681 5683 5684 5685 5687 5688 5688 5689 5690 5691 5692
5663 5665 5666 5665 5665 5663 5661 5660 5658 5657 5657 5659 5661 5664 5665 5666 5667 5668 5668 5668 5668 5669 5671 5674 5675 5676 5677 5679 5680 5680 5681 5682 5682 5683 5683 5684 5685 5686
5656 5657 5658 5658 5659 5658 5657 5655 5653 5651 5651 5653 5656 5658 5662 5664 5665 5664 5664 5662 5661 5666 5666 5668 5670 5671 5674 5675 5675 5676 5676 5676 5676 5676 5677 5678 5679 5680
5650 5651 5652 5654 5653 5653 5652 5651 5650 5649 5648 5649 5650 5653 5656 5659 5660 5660 5660 5662 5665 5667 5663 5662 5664 5667 5670 5671 5671 5672 5671 5671 5670 5669 5669 5670 5671 5672
5647 5647 5647 5649 5650 5649 5648 5647 5647 5646 5645 5646 5648 5651 5653 5656 5658 5661 5662 5662 5662 5663 5661 5658 5660 5663 5667 5667 5668 5668 5667 5665 5664 5663 5662 5662 5663 5663
5642 5643 5643 5644 5647 5646 5643 5642 5642 5643 5643 5643 5645 5647 5649 5651 5653 5654 5655 5654 5655 5657 5657 5655 5657 5658 5660 5662 5664 5664 5663 5661 5659 5657 5656 5655 5655 5655
5636 5637 5639 5640 5642 5644 5640 5639 5638 5640 5641 5642 5642 5644 5645 5647 5649 5650 5651 5650 5650 5651 5653 5652 5651 5650 5652 5656 5657 5658 5657 5655 5653 5650 5648 5647 5647 5646
5628 5630 5633 5636 5639 5640 5639 5638 5638 5639 5639 5639 5638 5639 5640 5641 5643 5644 5646 5646 5646 5646 5648 5647 5646 5645 5647 5647 5646 5648 5648 5648 5645 5643 5641 5640 5639 5638
5620 5623 5626 5629 5632 5634 5634 5634 5634 5633 5632 5631 5631 5631 5633 5634 5636 5637 5639 5640 5641 5642 5642 5642 5641 5640 5638 5637 5637 5637 5639 5639 5637 5635 5633 5632 5630 5630
5610 5614 5618 5622 5623 5625 5627 5627 5626 5625 5625 5624 5624 5625 5626 5627 5628 5629 5630 5631 5632 5633 5634 5634 5634 5633 5632 5631 5631 5629 5628 5629 5628 5627 5625 5623 5622 5621
5598 5604 5610 5613 5614 5615 5617 5618 5618 5619 5620 5620 5620 5620 5620 5620 5621 5621 5621 5621 5622 5623 5625 5625 5625 5625 5625 5625 5624 5622 5620 5620 5619 5617 5616 5615 5614 5613
5589 5594 5599 5603 5605 5607 5609 5610 5611 5613 5614 5616 5616 5616 5615 5614 5614 5614 5614 5614 5614 5614 5615 5616 5616 5616 5617 5617 5617 5617 5615 5613 5611 5609 5607 5607 5607 5606
5586 5590 5594 5598 5600 5602 5603 5604 5606 5608 5610 5610 5610 5610 5609 5609 5609 5608 5608 5608 5608 5607 5607 5607 5606 5606 5607 5609 5611 5611 5610 5609 5605 5602 5600 5599 5601 5601
5587 5590 5592 5595 5597 5598 5599 5602 5603 5605 5606 5606 5605 5604 5604 5604 5604 5603 5602 5601 5601 5600 5600 5599 5598 5597 5598 5601 5604 5603 5602 5600 5596 5593 5591 5592 5594 5595
5587 5589 5591 5592 5594 5596 5597 5599 5601 5602 5602 5601 5600 5599 5599 5599 5598 5596 5595 5593 5592 5592 5591 5590 5589 5588 5589 5590 5592 5593 5591 5590 5589 5588 5587 5586 5586 5586
5584 5585 5587 5588 5590 5592 5593 5595 5596 5596 5595 5594 5593 5592 5591 5590 5589 5588 5587 5586 5585 5583 5582 5581 5581 5580 5579 5578 5580 5582 5581 5580 5580 5579 5579 5579 5578 5577
5579 5580 5581 5583 5585 5587 5588 5589 5589 5588 5588 5588 5587 5586 5585 5584 5583 5582 5580 5578 5577 5576 5576 5574 5572 5570 5568 5569 5570 5570 5570 5569 5568 5567 5566 5567 5569 5572
5574 5576 5578 5580 5581 5583 5584 5584 5585 5584 5584 5584 5583 5582 5581 5580 5578 5577 5575 5573 5572 5570 5568 5566 5563 5560 5558 5556 5556 5557 5557 5557 5556 5555 5554 5554 5555 5558